Time,TemperatureF,DewpointF,PressureIn,WindDirection,WindDirectionDegrees,WindSpeedMPH,WindSpeedGustMPH,Humidity,HourlyPrecipIn,Conditions,Clouds,dailyrainin,SoftwareType,DateUTC
2013-07-24 00:05:00,64.3,56.6,29.96,NNE,26,1.0,2.0,76,0.00,,,0.00,Wunderground v.1.15,2013-07-24 05:05:00,
2013-07-24 00:10:00,64.2,56.8,29.96,NNE,26,2.0,2.0,77,0.00,,,0.00,Wunderground v.1.15,2013-07-24 05:10:00,
2013-07-24 00:20:00,64.0,56.3,29.96,NNE,28,1.0,2.0,76,0.00,,,0.00,Wunderground v.1.15,2013-07-24 05:20:00,
2013-07-24 00:25:00,63.9,56.2,29.96,NNE,28,1.0,2.0,76,0.00,,,0.00,Wunderground v.1.15,2013-07-24 05:25:00,
2013-07-24 00:35:00,63.6,55.9,29.96,NNE,28,1.0,2.0,76,0.00,,,0.00,Wunderground v.1.15,2013-07-24 05:35:00,
2013-07-24 00:40:00,63.4,55.7,29.96,NNE,28,1.0,1.0,76,0.00,,,0.00,Wunderground v.1.15,2013-07-24 05:40:00,
2013-07-24 00:45:00,63.1,55.4,29.96,NNE,28,1.0,1.0,76,0.00,,,0.00,Wunderground v.1.15,2013-07-24 05:45:00,
2013-07-24 00:55:00,62.5,55.2,29.96,NNE,28,1.0,2.0,77,0.00,,,0.00,Wunderground v.1.15,2013-07-24 05:55:00,
2013-07-24 01:00:00,62.2,55.3,29.96,NNE,28,1.0,1.0,78,0.00,,,0.00,Wunderground v.1.15,2013-07-24 06:00:00,
2013-07-24 01:10:00,61.7,55.1,29.96,NNE,28,1.0,1.0,79,0.00,,,0.00,Wunderground v.1.15,2013-07-24 06:10:00,
2013-07-24 01:15:00,61.4,54.8,29.97,NNE,28,1.0,1.0,79,0.00,,,0.00,Wunderground v.1.15,2013-07-24 06:15:00,
2013-07-24 01:20:00,61.2,55.0,29.97,NNE,28,1.0,1.0,80,0.00,,,0.00,Wunderground v.1.15,2013-07-24 06:20:00,
2013-07-24 01:30:00,60.8,54.6,29.97,NNE,28,1.0,1.0,80,0.00,,,0.00,Wunderground v.1.15,2013-07-24 06:30:00,
2013-07-24 01:35:00,60.6,54.4,29.97,NNE,28,0.0,1.0,80,0.00,,,0.00,Wunderground v.1.15,2013-07-24 06:35:00,
2013-07-24 01:45:00,60.3,54.4,29.97,NNE,28,0.0,2.0,81,0.00,,,0.00,Wunderground v.1.15,2013-07-24 06:45:00,
2013-07-24 01:50:00,60.1,54.2,29.97,NNE,28,1.0,1.0,81,0.00,,,0.00,Wunderground v.1.15,2013-07-24 06:50:00,
2013-07-24 02:00:00,59.8,54.0,29.96,NNE,28,1.0,1.0,81,0.00,,,0.00,Wunderground v.1.15,2013-07-24 07:00:00,
2013-07-24 02:05:00,59.6,54.1,29.96,NNE,28,1.0,2.0,82,0.00,,,0.00,Wunderground v.1.15,2013-07-24 07:05:00,
2013-07-24 02:10:00,59.4,53.9,29.96,NNE,28,1.0,1.0,82,0.00,,,0.00,Wunderground v.1.15,2013-07-24 07:10:00,
2013-07-24 02:20:00,59.1,53.6,29.96,NNE,28,2.0,3.0,82,0.00,,,0.00,Wunderground v.1.15,2013-07-24 07:20:00,
2013-07-24 02:25:00,59.0,53.5,29.96,NNE,27,2.0,4.0,82,0.00,,,0.00,Wunderground v.1.15,2013-07-24 07:25:00,
2013-07-24 02:35:00,58.7,53.5,29.97,NNE,27,2.0,2.0,83,0.00,,,0.00,Wunderground v.1.15,2013-07-24 07:35:00,
2013-07-24 02:40:00,58.6,53.1,29.97,NNE,27,2.0,2.0,82,0.00,,,0.00,Wunderground v.1.15,2013-07-24 07:40:00,
2013-07-24 02:50:00,58.4,53.3,29.96,NNE,26,2.0,2.0,83,0.00,,,0.00,Wunderground v.1.15,2013-07-24 07:50:00,
2013-07-24 02:55:00,58.3,53.2,29.96,NNE,25,2.0,3.0,83,0.00,,,0.00,Wunderground v.1.15,2013-07-24 07:55:00,
2013-07-24 03:00:00,58.1,53.0,29.98,NNE,25,2.0,2.0,83,0.00,,,0.00,Wunderground v.1.15,2013-07-24 08:00:00,
2013-07-24 03:10:00,57.9,52.8,29.98,NNE,25,1.0,1.0,83,0.00,,,0.00,Wunderground v.1.15,2013-07-24 08:10:00,
2013-07-24 03:15:00,57.8,52.7,29.98,NNE,25,1.0,1.0,83,0.00,,,0.00,Wunderground v.1.15,2013-07-24 08:15:00,
2013-07-24 03:20:00,57.6,52.5,29.98,NNE,25,1.0,1.0,83,0.00,,,0.00,Wunderground v.1.15,2013-07-24 08:20:00,
2013-07-24 03:30:00,57.4,52.3,29.97,NNE,24,2.0,2.0,83,0.00,,,0.00,Wunderground v.1.15,2013-07-24 08:30:00,
2013-07-24 03:35:00,57.3,52.2,29.97,NNE,18,2.0,4.0,83,0.00,,,0.00,Wunderground v.1.15,2013-07-24 08:35:00,
2013-07-24 03:45:00,57.1,52.3,29.98,NNE,13,2.0,4.0,84,0.00,,,0.00,Wunderground v.1.15,2013-07-24 08:45:00,
2013-07-24 03:50:00,57.0,52.2,29.98,NNE,13,2.0,2.0,84,0.00,,,0.00,Wunderground v.1.15,2013-07-24 08:50:00,
2013-07-24 03:55:00,56.9,52.1,29.98,NNE,13,1.0,2.0,84,0.00,,,0.00,Wunderground v.1.15,2013-07-24 08:55:00,
2013-07-24 04:05:00,56.7,51.9,29.98,NNE,13,0.0,1.0,84,0.00,,,0.00,Wunderground v.1.15,2013-07-24 09:05:00,
2013-07-24 04:10:00,56.6,51.8,29.98,NNE,13,0.0,1.0,84,0.00,,,0.00,Wunderground v.1.15,2013-07-24 09:10:00,
2013-07-24 04:20:00,56.3,51.5,29.98,NNE,13,1.0,1.0,84,0.00,,,0.00,Wunderground v.1.15,2013-07-24 09:20:00,
2013-07-24 04:25:00,56.1,51.3,29.98,NNE,13,1.0,1.0,84,0.00,,,0.00,Wunderground v.1.15,2013-07-24 09:25:00,
2013-07-24 04:35:00,55.8,51.0,29.98,NNE,13,0.0,0.0,84,0.00,,,0.00,Wunderground v.1.15,2013-07-24 09:35:00,
2013-07-24 04:40:00,55.7,50.9,29.98,NNE,13,0.0,0.0,84,0.00,,,0.00,Wunderground v.1.15,2013-07-24 09:40:00,
2013-07-24 04:50:00,55.4,50.6,29.99,NNE,13,0.0,1.0,84,0.00,,,0.00,Wunderground v.1.15,2013-07-24 09:50:00,
2013-07-24 04:55:00,55.3,50.9,29.99,NNE,13,1.0,1.0,85,0.00,,,0.00,Wunderground v.1.15,2013-07-24 09:55:00,
2013-07-24 05:00:00,55.2,50.8,29.99,NNE,13,1.0,1.0,85,0.00,,,0.00,Wunderground v.1.15,2013-07-24 10:00:00,
2013-07-24 05:10:00,55.0,50.6,29.99,NNE,13,1.0,1.0,85,0.00,,,0.00,Wunderground v.1.15,2013-07-24 10:10:00,
2013-07-24 05:15:00,54.8,50.4,29.99,NNE,13,1.0,1.0,85,0.00,,,0.00,Wunderground v.1.15,2013-07-24 10:15:00,
2013-07-24 05:20:00,54.8,50.4,30.00,NNE,13,1.0,3.0,85,0.00,,,0.00,Wunderground v.1.15,2013-07-24 10:20:00,
2013-07-24 05:30:00,54.5,50.1,30.01,NNE,13,1.0,1.0,85,0.00,,,0.00,Wunderground v.1.15,2013-07-24 10:30:00,
2013-07-24 05:35:00,54.4,50.3,30.01,NNE,13,1.0,2.0,86,0.00,,,0.00,Wunderground v.1.15,2013-07-24 10:35:00,
2013-07-24 05:45:00,54.3,50.2,30.01,North,5,2.0,2.0,86,0.00,,,0.00,Wunderground v.1.15,2013-07-24 10:45:00,
2013-07-24 05:50:00,54.2,50.1,30.01,North,5,3.0,3.0,86,0.00,,,0.00,Wunderground v.1.15,2013-07-24 10:50:00,
2013-07-24 06:00:00,54.2,50.4,30.00,North,5,2.0,2.0,87,0.00,,,0.00,Wunderground v.1.15,2013-07-24 11:00:00,
2013-07-24 06:05:00,54.2,50.1,30.00,North,360,2.0,3.0,86,0.00,,,0.00,Wunderground v.1.15,2013-07-24 11:05:00,
2013-07-24 06:10:00,54.2,50.1,30.00,North,5,2.0,3.0,86,0.00,,,0.00,Wunderground v.1.15,2013-07-24 11:10:00,
2013-07-24 06:20:00,54.1,50.3,30.01,North,5,1.0,1.0,87,0.00,,,0.00,Wunderground v.1.15,2013-07-24 11:20:00,
2013-07-24 06:25:00,54.1,50.3,30.01,North,5,1.0,1.0,87,0.00,,,0.00,Wunderground v.1.15,2013-07-24 11:25:00,
2013-07-24 06:35:00,54.2,50.4,30.00,North,360,2.0,4.0,87,0.00,,,0.00,Wunderground v.1.15,2013-07-24 11:35:00,
2013-07-24 06:40:00,54.2,50.4,30.01,North,360,2.0,2.0,87,0.00,,,0.00,Wunderground v.1.15,2013-07-24 11:40:00,
2013-07-24 06:50:00,54.4,50.6,30.02,North,360,2.0,2.0,87,0.00,,,0.00,Wunderground v.1.15,2013-07-24 11:50:00,
2013-07-24 06:55:00,54.5,50.7,30.01,North,5,2.0,2.0,87,0.00,,,0.00,Wunderground v.1.15,2013-07-24 11:55:00,
2013-07-24 07:05:00,54.7,50.9,30.01,North,360,2.0,2.0,87,0.00,,,0.00,Wunderground v.1.15,2013-07-24 12:05:00,
2013-07-24 07:10:00,54.9,51.1,30.01,North,360,1.0,1.0,87,0.00,,,0.00,Wunderground v.1.15,2013-07-24 12:10:00,
2013-07-24 07:15:00,55.3,51.5,30.01,North,360,1.0,1.0,87,0.00,,,0.00,Wunderground v.1.15,2013-07-24 12:15:00,
2013-07-24 07:25:00,56.4,52.3,30.01,North,5,2.0,3.0,86,0.00,,,0.00,Wunderground v.1.15,2013-07-24 12:25:00,
2013-07-24 07:30:00,57.1,52.3,30.01,NE,38,2.0,2.0,84,0.00,,,0.00,Wunderground v.1.15,2013-07-24 12:30:00,
2013-07-24 07:40:00,58.7,52.9,30.01,NE,51,2.0,3.0,81,0.00,,,0.00,Wunderground v.1.15,2013-07-24 12:40:00,
2013-07-24 07:45:00,59.4,52.5,30.01,NNE,32,2.0,3.0,78,0.00,,,0.00,Wunderground v.1.15,2013-07-24 12:45:00,
2013-07-24 07:55:00,61.1,53.5,30.02,ENE,69,2.0,4.0,76,0.00,,,0.00,Wunderground v.1.15,2013-07-24 12:55:00,
2013-07-24 08:00:00,61.8,53.4,30.02,ENE,70,2.0,2.0,74,0.00,,,0.00,Wunderground v.1.15,2013-07-24 13:00:00,
2013-07-24 08:10:00,63.4,53.4,30.02,NNW,342,3.0,3.0,70,0.00,,,0.00,Wunderground v.1.15,2013-07-24 13:10:00,
2013-07-24 08:15:00,63.8,53.4,30.02,NE,51,3.0,3.0,69,0.00,,,0.00,Wunderground v.1.15,2013-07-24 13:15:00,
2013-07-24 08:25:00,64.9,54.5,30.02,NE,44,2.0,3.0,69,0.00,,,0.00,Wunderground v.1.15,2013-07-24 13:25:00,
2013-07-24 08:30:00,65.4,54.6,30.03,ENE,59,2.0,3.0,68,0.00,,,0.00,Wunderground v.1.15,2013-07-24 13:30:00,
2013-07-24 08:35:00,65.7,54.8,30.03,ENE,61,3.0,4.0,68,0.00,,,0.00,Wunderground v.1.15,2013-07-24 13:35:00,
2013-07-24 08:45:00,66.6,54.5,30.02,North,11,3.0,5.0,65,0.00,,,0.00,Wunderground v.1.15,2013-07-24 13:45:00,
2013-07-24 08:50:00,67.0,54.8,30.02,ENE,67,3.0,3.0,65,0.00,,,0.00,Wunderground v.1.15,2013-07-24 13:50:00,
2013-07-24 09:00:00,67.6,54.1,30.03,ENE,59,3.0,3.0,62,0.00,,,0.00,Wunderground v.1.15,2013-07-24 14:00:00,
2013-07-24 09:05:00,67.9,53.5,30.03,NE,45,4.0,4.0,60,0.00,,,0.00,Wunderground v.1.15,2013-07-24 14:05:00,
2013-07-24 09:10:00,68.1,54.1,30.03,ENE,63,3.0,3.0,61,0.00,,,0.00,Wunderground v.1.15,2013-07-24 14:10:00,
2013-07-24 09:20:00,68.9,55.8,30.04,ENE,74,3.0,8.0,63,0.00,,,0.00,Wunderground v.1.15,2013-07-24 14:20:00,
2013-07-24 09:25:00,69.2,53.3,30.04,NE,54,4.0,8.0,57,0.00,,,0.00,Wunderground v.1.15,2013-07-24 14:25:00,
2013-07-24 09:35:00,69.8,53.9,30.04,ENE,67,3.0,4.0,57,0.00,,,0.00,Wunderground v.1.15,2013-07-24 14:35:00,
2013-07-24 09:40:00,70.1,54.6,30.04,NE,50,3.0,3.0,58,0.00,,,0.00,Wunderground v.1.15,2013-07-24 14:40:00,
2013-07-24 09:50:00,71.1,54.6,30.04,NNE,32,2.0,2.0,56,0.00,,,0.00,Wunderground v.1.15,2013-07-24 14:50:00,
2013-07-24 09:55:00,71.8,56.2,30.04,NNE,31,2.0,4.0,58,0.00,,,0.00,Wunderground v.1.15,2013-07-24 14:55:00,
2013-07-24 10:05:00,72.5,55.4,30.04,NNE,29,3.0,3.0,55,0.00,,,0.00,Wunderground v.1.15,2013-07-24 15:05:00,
2013-07-24 10:10:00,72.9,56.8,30.04,NNW,338,3.0,3.0,57,0.00,,,0.00,Wunderground v.1.15,2013-07-24 15:10:00,
2013-07-24 10:20:00,73.3,56.2,30.04,North,5,3.0,3.0,55,0.00,,,0.00,Wunderground v.1.15,2013-07-24 15:20:00,
2013-07-24 10:25:00,73.7,56.5,30.04,NNE,33,3.0,3.0,55,0.00,,,0.00,Wunderground v.1.15,2013-07-24 15:25:00,
2013-07-24 10:30:00,74.2,57.0,30.04,North,5,3.0,3.0,55,0.00,,,0.00,Wunderground v.1.15,2013-07-24 15:30:00,
2013-07-24 10:40:00,73.9,56.7,30.04,NE,52,3.0,3.0,55,0.00,,,0.00,Wunderground v.1.15,2013-07-24 15:40:00,
2013-07-24 10:45:00,74.2,57.5,30.04,ENE,64,3.0,3.0,56,0.00,,,0.00,Wunderground v.1.15,2013-07-24 15:45:00,
2013-07-24 10:55:00,74.0,55.3,30.03,East,86,3.0,3.0,52,0.00,,,0.00,Wunderground v.1.15,2013-07-24 15:55:00,
2013-07-24 11:00:00,74.0,57.8,30.03,NE,52,3.0,3.0,57,0.00,,,0.00,Wunderground v.1.15,2013-07-24 16:00:00,
2013-07-24 11:10:00,74.2,54.9,30.04,ENE,57,4.0,5.0,51,0.00,,,0.00,Wunderground v.1.15,2013-07-24 16:10:00,
2013-07-24 11:15:00,74.3,58.1,30.03,NNE,15,3.0,5.0,57,0.00,,,0.00,Wunderground v.1.15,2013-07-24 16:15:00,
2013-07-24 11:20:00,74.3,57.1,30.03,ENE,61,3.0,3.0,55,0.00,,,0.00,Wunderground v.1.15,2013-07-24 16:20:00,
2013-07-24 11:30:00,74.6,58.4,30.04,NNE,33,3.0,3.0,57,0.00,,,0.00,Wunderground v.1.15,2013-07-24 16:30:00,
2013-07-24 11:35:00,75.0,57.2,30.04,NE,49,3.0,3.0,54,0.00,,,0.00,Wunderground v.1.15,2013-07-24 16:35:00,
2013-07-24 11:45:00,75.9,57.0,30.04,ENE,59,2.0,2.0,52,0.00,,,0.00,Wunderground v.1.15,2013-07-24 16:45:00,
2013-07-24 11:50:00,76.3,58.9,30.04,NNE,33,2.0,2.0,55,0.00,,,0.00,Wunderground v.1.15,2013-07-24 16:50:00,
2013-07-24 12:00:00,76.6,58.2,30.04,NNE,14,3.0,4.0,53,0.00,,,0.00,Wunderground v.1.15,2013-07-24 17:00:00,
2013-07-24 12:05:00,76.8,58.9,30.03,NNE,12,2.0,4.0,54,0.00,,,0.00,Wunderground v.1.15,2013-07-24 17:05:00,
2013-07-24 12:15:00,77.4,57.3,30.04,NNW,339,2.0,2.0,50,0.00,,,0.00,Wunderground v.1.15,2013-07-24 17:15:00,
2013-07-24 12:20:00,77.8,58.2,30.04,NE,56,2.0,2.0,51,0.00,,,0.00,Wunderground v.1.15,2013-07-24 17:20:00,
2013-07-24 12:25:00,77.8,57.7,30.04,NE,48,2.0,3.0,50,0.00,,,0.00,Wunderground v.1.15,2013-07-24 17:25:00,
2013-07-24 12:35:00,77.4,56.7,30.05,ENE,65,3.0,3.0,49,0.00,,,0.00,Wunderground v.1.15,2013-07-24 17:35:00,
2013-07-24 12:40:00,77.4,58.4,30.04,ENE,72,2.0,7.0,52,0.00,,,0.00,Wunderground v.1.15,2013-07-24 17:40:00,
2013-07-24 12:50:00,76.8,57.3,30.04,East,93,4.0,4.0,51,0.00,,,0.00,Wunderground v.1.15,2013-07-24 17:50:00,
2013-07-24 12:55:00,76.9,57.4,30.04,East,80,3.0,5.0,51,0.00,,,0.00,Wunderground v.1.15,2013-07-24 17:55:00,
2013-07-24 13:05:00,77.4,58.4,30.04,North,5,1.0,2.0,52,0.00,,,0.00,Wunderground v.1.15,2013-07-24 18:05:00,
2013-07-24 13:10:00,77.8,58.2,30.04,NNW,338,1.0,5.0,51,0.00,,,0.00,Wunderground v.1.15,2013-07-24 18:10:00,
2013-07-24 13:20:00,78.2,58.6,30.05,ENE,78,1.0,1.0,51,0.00,,,0.00,Wunderground v.1.15,2013-07-24 18:20:00,
2013-07-24 13:25:00,78.2,56.9,30.05,ENE,63,2.0,2.0,48,0.00,,,0.00,Wunderground v.1.15,2013-07-24 18:25:00,
2013-07-24 13:35:00,78.4,59.9,30.04,NNW,333,1.0,2.0,53,0.00,,,0.00,Wunderground v.1.15,2013-07-24 18:35:00,
2013-07-24 13:40:00,78.5,56.0,30.04,NE,38,1.0,3.0,46,0.00,,,0.00,Wunderground v.1.15,2013-07-24 18:40:00,
2013-07-24 13:50:00,78.4,55.3,30.04,ENE,65,2.0,2.0,45,0.00,,,0.00,Wunderground v.1.15,2013-07-24 18:50:00,
2013-07-24 13:55:00,78.1,56.8,30.04,NNW,338,2.0,3.0,48,0.00,,,0.00,Wunderground v.1.15,2013-07-24 18:55:00,
2013-07-24 14:05:00,78.3,57.0,30.04,NNW,331,2.0,2.0,48,0.00,,,0.00,Wunderground v.1.15,2013-07-24 19:05:00,
2013-07-24 14:10:00,78.3,57.0,30.04,NNW,340,2.0,2.0,48,0.00,,,0.00,Wunderground v.1.15,2013-07-24 19:10:00,
2013-07-24 14:20:00,78.3,58.1,30.04,North,360,1.0,1.0,50,0.00,,,0.00,Wunderground v.1.15,2013-07-24 19:20:00,
2013-07-24 14:25:00,78.6,57.3,30.04,East,88,1.0,6.0,48,0.00,,,0.00,Wunderground v.1.15,2013-07-24 19:25:00,
2013-07-24 14:35:00,78.3,57.0,30.03,North,11,2.0,4.0,48,0.00,,,0.00,Wunderground v.1.15,2013-07-24 19:35:00,
2013-07-24 14:40:00,78.1,56.8,30.03,North,5,2.0,2.0,48,0.00,,,0.00,Wunderground v.1.15,2013-07-24 19:40:00,
2013-07-24 14:50:00,77.8,57.1,30.03,NE,48,1.0,4.0,49,0.00,,,0.00,Wunderground v.1.15,2013-07-24 19:50:00,
2013-07-24 14:55:00,77.4,55.6,30.03,ENE,63,2.0,4.0,47,0.00,,,0.00,Wunderground v.1.15,2013-07-24 19:55:00,
2013-07-24 15:00:00,77.0,56.4,30.03,ENE,61,3.0,3.0,49,0.00,,,0.00,Wunderground v.1.15,2013-07-24 20:00:00,
2013-07-24 15:10:00,76.8,56.8,30.03,NE,34,1.0,1.0,50,0.00,,,0.00,Wunderground v.1.15,2013-07-24 20:10:00,
2013-07-24 15:15:00,76.7,56.7,30.03,NNE,13,2.0,3.0,50,0.00,,,0.00,Wunderground v.1.15,2013-07-24 20:15:00,
2013-07-24 15:25:00,76.3,55.7,30.03,NNE,13,1.0,2.0,49,0.00,,,0.00,Wunderground v.1.15,2013-07-24 20:25:00,
2013-07-24 15:30:00,76.2,58.9,30.03,NE,46,1.0,1.0,55,0.00,,,0.00,Wunderground v.1.15,2013-07-24 20:30:00,
2013-07-24 15:40:00,75.9,57.0,30.03,North,5,1.0,1.0,52,0.00,,,0.00,Wunderground v.1.15,2013-07-24 20:40:00,
2013-07-24 15:45:00,75.8,57.4,30.03,NNW,328,1.0,4.0,53,0.00,,,0.00,Wunderground v.1.15,2013-07-24 20:45:00,
2013-07-24 15:55:00,75.6,54.5,30.03,North,360,1.0,1.0,48,0.00,,,0.00,Wunderground v.1.15,2013-07-24 20:55:00,
2013-07-24 16:00:00,75.5,57.7,30.02,NNW,340,1.0,3.0,54,0.00,,,0.00,Wunderground v.1.15,2013-07-24 21:00:00,
2013-07-24 16:05:00,75.3,55.4,30.03,NNW,332,1.0,3.0,50,0.00,,,0.00,Wunderground v.1.15,2013-07-24 21:05:00,
2013-07-24 16:15:00,75.0,56.7,30.02,ENE,65,2.0,2.0,53,0.00,,,0.00,Wunderground v.1.15,2013-07-24 21:15:00,
2013-07-24 16:20:00,74.8,55.5,30.02,North,9,2.0,2.0,51,0.00,,,0.00,Wunderground v.1.15,2013-07-24 21:20:00,
2013-07-24 16:30:00,74.5,54.1,30.02,North,360,1.0,1.0,49,0.00,,,0.00,Wunderground v.1.15,2013-07-24 21:30:00,
2013-07-24 16:35:00,74.3,53.9,30.02,NNW,327,1.0,1.0,49,0.00,,,0.00,Wunderground v.1.15,2013-07-24 21:35:00,
2013-07-24 16:45:00,74.0,53.1,30.02,ENE,76,1.0,3.0,48,0.00,,,0.00,Wunderground v.1.15,2013-07-24 21:45:00,
2013-07-24 16:50:00,74.0,53.1,30.02,North,5,1.0,1.0,48,0.00,,,0.00,Wunderground v.1.15,2013-07-24 21:50:00,
2013-07-24 17:00:00,73.7,53.9,30.02,NNE,28,1.0,2.0,50,0.00,,,0.00,Wunderground v.1.15,2013-07-24 22:00:00,
2013-07-24 17:05:00,73.7,54.4,30.02,ENE,61,1.0,2.0,51,0.00,,,0.00,Wunderground v.1.15,2013-07-24 22:05:00,
2013-07-24 17:15:00,73.7,56.0,30.02,NW,309,1.0,5.0,54,0.00,,,0.00,Wunderground v.1.15,2013-07-24 22:15:00,
2013-07-24 17:20:00,73.6,54.4,30.02,NNE,30,1.0,1.0,51,0.00,,,0.00,Wunderground v.1.15,2013-07-24 22:20:00,
2013-07-24 17:25:00,73.5,54.8,30.03,North,360,1.0,1.0,52,0.00,,,0.00,Wunderground v.1.15,2013-07-24 22:25:00,
2013-07-24 17:35:00,73.4,54.2,30.02,NNE,28,0.0,3.0,51,0.00,,,0.00,Wunderground v.1.15,2013-07-24 22:35:00,
2013-07-24 17:45:00,73.4,53.6,30.03,NNW,335,0.0,0.0,50,0.00,,,0.00,Wunderground v.1.15,2013-07-24 22:45:00,
2013-07-24 17:50:00,73.3,53.5,30.02,NNW,342,0.0,0.0,50,0.00,,,0.00,Wunderground v.1.15,2013-07-24 22:50:00,
2013-07-24 18:00:00,73.1,54.4,30.02,North,9,0.0,0.0,52,0.00,,,0.00,Wunderground v.1.15,2013-07-24 23:00:00,
2013-07-24 18:05:00,73.0,54.3,30.02,North,360,0.0,0.0,52,0.00,,,0.00,Wunderground v.1.15,2013-07-24 23:05:00,
2013-07-24 18:10:00,72.9,53.7,30.02,North,360,0.0,0.0,51,0.00,,,0.00,Wunderground v.1.15,2013-07-24 23:10:00,
2013-07-24 18:20:00,72.8,53.6,30.03,North,5,0.0,0.0,51,0.00,,,0.00,Wunderground v.1.15,2013-07-24 23:20:00,
2013-07-24 18:30:00,72.6,54.5,30.03,NNE,19,0.0,0.0,53,0.00,,,0.00,Wunderground v.1.15,2013-07-24 23:30:00,
2013-07-24 18:35:00,72.5,53.9,30.03,NNE,19,0.0,0.0,52,0.00,,,0.00,Wunderground v.1.15,2013-07-24 23:35:00,
2013-07-24 18:40:00,72.2,53.6,30.03,NNE,19,0.0,0.0,52,0.00,,,0.00,Wunderground v.1.15,2013-07-24 23:40:00,
2013-07-24 18:50:00,71.9,53.8,30.03,NNE,19,0.0,0.0,53,0.00,,,0.00,Wunderground v.1.15,2013-07-24 23:50:00,
2013-07-24 18:55:00,71.7,55.2,30.03,NNE,19,0.0,0.0,56,0.00,,,0.00,Wunderground v.1.15,2013-07-24 23:55:00,
2013-07-24 19:05:00,71.3,54.3,30.03,NNE,19,0.0,1.0,55,0.00,,,0.00,Wunderground v.1.15,2013-07-25 00:05:00,
2013-07-24 19:10:00,71.1,55.1,30.04,NNE,19,0.0,0.0,57,0.00,,,0.00,Wunderground v.1.15,2013-07-25 00:10:00,
2013-07-24 19:20:00,70.7,55.2,30.03,NNE,19,0.0,0.0,58,0.00,,,0.00,Wunderground v.1.15,2013-07-25 00:20:00,
2013-07-24 19:30:00,70.4,54.9,30.04,NNE,19,0.0,0.0,58,0.00,,,0.00,Wunderground v.1.15,2013-07-25 00:30:00,
2013-07-24 19:35:00,70.3,55.8,30.04,NNE,19,0.0,0.0,60,0.00,,,0.00,Wunderground v.1.15,2013-07-25 00:35:00,
2013-07-24 19:45:00,69.9,56.3,30.04,NNE,19,0.0,0.0,62,0.00,,,0.00,Wunderground v.1.15,2013-07-25 00:45:00,
2013-07-24 19:50:00,69.7,56.1,30.04,NNE,19,0.0,0.0,62,0.00,,,0.00,Wunderground v.1.15,2013-07-25 00:50:00,
2013-07-24 20:00:00,69.3,56.2,30.04,NNE,19,0.0,0.0,63,0.00,,,0.00,Wunderground v.1.15,2013-07-25 01:00:00,
2013-07-24 20:05:00,69.0,56.7,30.04,NNE,19,0.0,0.0,65,0.00,,,0.00,Wunderground v.1.15,2013-07-25 01:05:00,
2013-07-24 20:15:00,68.4,56.2,30.04,NNE,19,0.0,0.0,65,0.00,,,0.00,Wunderground v.1.15,2013-07-25 01:15:00,
2013-07-24 20:20:00,68.1,56.7,30.04,NNE,19,0.0,0.0,67,0.00,,,0.00,Wunderground v.1.15,2013-07-25 01:20:00,
2013-07-24 20:30:00,67.4,56.5,30.04,NNE,19,0.0,0.0,68,0.00,,,0.00,Wunderground v.1.15,2013-07-25 01:30:00,
2013-07-24 20:35:00,67.1,57.0,30.05,NNE,19,0.0,0.0,70,0.00,,,0.00,Wunderground v.1.15,2013-07-25 01:35:00,
2013-07-24 20:40:00,66.7,56.2,30.05,NNE,19,0.0,1.0,69,0.00,,,0.00,Wunderground v.1.15,2013-07-25 01:40:00,
2013-07-24 20:50:00,65.9,55.4,30.05,NNE,17,1.0,1.0,69,0.00,,,0.00,Wunderground v.1.15,2013-07-25 01:50:00,
2013-07-24 20:55:00,65.5,55.5,30.05,NNE,17,0.0,1.0,70,0.00,,,0.00,Wunderground v.1.15,2013-07-25 01:55:00,
2013-07-24 21:05:00,64.6,54.2,30.05,NNE,15,0.0,0.0,69,0.00,,,0.00,Wunderground v.1.15,2013-07-25 02:05:00,
2013-07-24 21:10:00,64.2,53.4,30.05,NNE,17,0.0,2.0,68,0.00,,,0.00,Wunderground v.1.15,2013-07-25 02:10:00,
2013-07-24 21:20:00,63.5,53.1,30.05,North,5,1.0,1.0,69,0.00,,,0.00,Wunderground v.1.15,2013-07-25 02:20:00,
2013-07-24 21:25:00,63.2,53.3,30.05,North,5,0.0,1.0,70,0.00,,,0.00,Wunderground v.1.15,2013-07-25 02:25:00,
2013-07-24 21:35:00,62.5,52.6,30.06,North,5,0.0,0.0,70,0.00,,,0.00,Wunderground v.1.15,2013-07-25 02:35:00,
2013-07-24 21:40:00,62.2,52.7,30.06,North,5,0.0,0.0,71,0.00,,,0.00,Wunderground v.1.15,2013-07-25 02:40:00,
2013-07-24 21:50:00,61.7,52.6,30.06,North,5,0.0,2.0,72,0.00,,,0.00,Wunderground v.1.15,2013-07-25 02:50:00,
2013-07-24 21:55:00,61.4,52.3,30.06,North,5,1.0,2.0,72,0.00,,,0.00,Wunderground v.1.15,2013-07-25 02:55:00,
2013-07-24 22:00:00,61.1,52.4,30.06,North,5,1.0,1.0,73,0.00,,,0.00,Wunderground v.1.15,2013-07-25 03:00:00,
2013-07-24 22:10:00,60.6,52.3,30.06,North,5,1.0,1.0,74,0.00,,,0.00,Wunderground v.1.15,2013-07-25 03:10:00,
2013-07-24 22:20:00,60.2,52.2,30.06,North,5,1.0,1.0,75,0.00,,,0.00,Wunderground v.1.15,2013-07-25 03:20:00,
2013-07-24 22:25:00,60.0,52.1,30.06,North,5,1.0,2.0,75,0.00,,,0.00,Wunderground v.1.15,2013-07-25 03:25:00,
2013-07-24 22:35:00,59.5,51.9,30.06,North,5,1.0,2.0,76,0.00,,,0.00,Wunderground v.1.15,2013-07-25 03:35:00,
2013-07-24 22:45:00,59.1,51.5,30.06,North,5,1.0,2.0,76,0.00,,,0.00,Wunderground v.1.15,2013-07-25 03:45:00,
2013-07-24 22:55:00,58.9,51.7,30.07,North,5,2.0,2.0,77,0.00,,,0.00,Wunderground v.1.15,2013-07-25 03:55:00,
2013-07-24 23:05:00,58.6,51.4,30.07,North,5,1.0,1.0,77,0.00,,,0.00,Wunderground v.1.15,2013-07-25 04:05:00,
2013-07-24 23:10:00,58.5,51.7,30.07,North,5,0.0,0.0,78,0.00,,,0.00,Wunderground v.1.15,2013-07-25 04:10:00,
2013-07-24 23:15:00,58.4,51.6,30.07,North,5,0.0,2.0,78,0.00,,,0.00,Wunderground v.1.15,2013-07-25 04:15:00,
2013-07-24 23:25:00,58.1,51.6,30.08,North,5,1.0,1.0,79,0.00,,,0.00,Wunderground v.1.15,2013-07-25 04:25:00,
2013-07-24 23:30:00,58.0,51.5,30.08,North,5,0.0,0.0,79,0.00,,,0.00,Wunderground v.1.15,2013-07-25 04:30:00,
2013-07-24 23:35:00,57.9,51.4,30.08,North,5,0.0,0.0,79,0.00,,,0.00,Wunderground v.1.15,2013-07-25 04:35:00,
2013-07-24 23:40:00,57.8,51.7,30.08,North,5,1.0,1.0,80,0.00,,,0.00,Wunderground v.1.15,2013-07-25 04:40:00,
2013-07-24 23:50:00,57.5,51.7,30.08,North,5,0.0,0.0,81,0.00,,,0.00,Wunderground v.1.15,2013-07-25 04:50:00,
2013-07-24 23:55:00,57.4,51.6,30.08,North,5,0.0,0.0,81,0.00,,,0.00,Wunderground v.1.15,2013-07-25 04:55:00,